[[{"header":{"parameterUnit":"m.s-1","parameterCategory":1,"la1":30.2991,"la2":30.254,"lo1":-89.0895,"lo2":-89.0444,"dy":0.0017,"dx":0.0017,"nx":28,"ny":28,"refTime":"2025-05-01T03:00:00:Z","depth":0,"parameterNumber":2,"parameterNumberName":"U-component_of_WINDS"},"data":[0,0,0,0,0,0,0,0,0,0,0,0,0,0,0,0,0,0,0,0,0,0,0,0,0,0,0,0,0,0,0,0,0,0,0,0,0,0,0,0,0,0,0,0,0,0,0,0,0,0,0,0,0,0,0,0,0,0,0.9702,0.9702,0,0.9663,0.9663,0.9662,0.9634,0.9634,0.9634,0.9634,0.9593,0.9592,0.9591,0,0,0,0,0,0,0,0,0,0,0,0,0,0.975,0.9749,0.9702,0.9702,0.9701,0.9663,0.9662,0.9662,0.9634,0.9634,0.9634,0.9634,0.9593,0.9592,0.9591,0,0,0,0,0,0,0,0,0,0,0,0,0,0.9722,0.9749,0.9702,0.9683,0.9681,0.9663,0.9662,0.9662,0.9634,0.9634,0.9634,0.9633,0.9594,0.9593,0.9591,0.959,0,0,0.9587,0.9587,0,0,0,0,0,0,0,0,0.9724,0.972,0.9686,0.9684,0.9682,0.9653,0.9665,0.9638,0.9635,0.9652,0.9634,0.9633,0.9613,0.961,0.9604,0.9588,0.9586,0.9587,0.9586,0.9586,0.9585,0,0,0,0,0,0,0,0.9726,0.9722,0.9687,0.9686,0.9683,0.9675,0.9671,0.9659,0.9635,0.965,0.9648,0.9644,0.9612,0.9605,0.9603,0.9586,0.9587,0.9586,0.9585,0.9585,0.9563,0.9563,0,0,0,0,0,0,0.9731,0.9724,0.9688,0.9685,0.9702,0.9675,0.967,0.9663,0.9635,0.9631,0.9644,0.9643,0.9608,0.9604,0.9601,0.9596,0.9586,0.9585,0.9584,0.9563,0.9563,0.9564,0,0,0,0,0,0,0.9732,0.9728,0.9689,0.9704,0.9698,0.9674,0.9666,0.9662,0.9655,0.963,0.9626,0.9642,0.9607,0.9603,0.9592,0.9594,0.9584,0.9583,0.9563,0.9563,0.9563,0.9586,0,0,0,0,0,0,0.9734,0.9729,0.9729,0.9704,0.9698,0.9682,0.9667,0.9662,0.9653,0.9651,0.9627,0.9623,0.9607,0.9594,0.9591,0.9592,0.9582,0.9562,0.9563,0.9563,0.9585,0.9587,0.9589,0,0,0,0,0,0.9735,0.9737,0.9729,0.9725,0.9697,0.9682,0.9678,0.966,0.9653,0.9652,0.9636,0.9623,0.9594,0.9593,0.9589,0.959,0.9562,0.9563,0.9563,0.9584,0.9587,0.9589,0,0,0,0,0,0,0.9763,0.9734,0.9724,0.9718,0.9703,0.9678,0.9676,0.9664,0.965,0.9648,0.9626,0.9621,0.9612,0.96,0.9599,0.9586,0.9577,0.9576,0.9594,0.9596,0.9598,0.9601,0.9581,0,0,0,0,0,0.9768,0.9759,0.9733,0.973,0.9723,0.9701,0.9694,0.9681,0.9664,0.9657,0.964,0.9624,0.9611,0.9603,0.959,0.9583,0.9576,0.9581,0.9583,0.9585,0.9585,0.9578,0.9579,0.9565,0.9565,0.9565,0,0,0.9779,0.9762,0.9757,0.9735,0.9722,0.9712,0.9696,0.9686,0.9678,0.9656,0.9644,0.9631,0.9611,0.9602,0.9597,0.9591,0.9587,0.9586,0.9587,0.9586,0.9579,0.958,0.9581,0.9565,0.9565,0.9565,0,0,0.9793,0.978,0.9775,0.9761,0.9741,0.9726,0.9725,0.9701,0.9691,0.9679,0.9661,0.965,0.9629,0.9615,0.9605,0.9611,0.9598,0.9607,0.9617,0.9611,0.9612,0.9613,0.9614,0.9614,0.9607,0.9608,0.9608,0,0.9809,0.9794,0.9774,0.9765,0.9755,0.9733,0.9727,0.9715,0.9691,0.9684,0.9679,0.9649,0.9635,0.9621,0.9622,0.9615,0.9612,0.961,0.9614,0.9614,0.9615,0.9615,0.9616,0.9609,0.9609,0.9608,0.9608,0,0.9813,0.9803,0.9801,0.9778,0.9768,0.976,0.9738,0.973,0.9717,0.9702,0.9688,0.967,0.9651,0.9647,0.9635,0.963,0.9627,0.9618,0.9609,0.9618,0.9618,0.9618,0.961,0.961,0.961,0.9609,0,0,0.9845,0.981,0.9809,0.9797,0.9772,0.9763,0.9754,0.9735,0.9728,0.9712,0.9702,0.9683,0.9674,0.9662,0.9648,0.9643,0.9646,0.9634,0.9633,0.9636,0.9638,0.9645,0.9645,0.9637,0.9637,0.9637,0.9639,0,0.9854,0.9837,0.9817,0.9806,0.9795,0.9773,0.9764,0.9747,0.9733,0.972,0.9703,0.969,0.9679,0.9672,0.9665,0.9647,0.9646,0.9647,0.9627,0.9627,0.9632,0.9645,0.9653,0.9656,0.9639,0.9639,0.9639,0,0.9864,0.9848,0.9835,0.9809,0.9803,0.9796,0.9776,0.9765,0.9745,0.9734,0.972,0.9704,0.9692,0.9683,0.9664,0.9665,0.9656,0.9645,0.9645,0.9642,0.9633,0.9642,0.9656,0.9656,0.9639,0.9639,0.9639,0,0.9886,0.9861,0.985,0.9841,0.9811,0.9805,0.9792,0.9772,0.9761,0.9744,0.9736,0.9718,0.9707,0.9692,0.9671,0.9668,0.9654,0.9645,0.9644,0.9644,0.9642,0.9642,0.9654,0.9637,0.9637,0.9637,0.9637,0,0.9898,0.9891,0.9859,0.9852,0.9843,0.982,0.9811,0.9796,0.9777,0.9766,0.9746,0.9735,0.9709,0.9695,0.9678,0.9664,0.966,0.965,0.9645,0.9651,0.9652,0.9645,0.9644,0.9637,0.9637,0.9637,0.9637,0,0.9921,0.99,0.9886,0.9858,0.9851,0.9845,0.982,0.9812,0.9795,0.9781,0.9776,0.975,0.9732,0.9709,0.9685,0.9674,0.9661,0.9655,0.9668,0.9665,0.9665,0.9665,0.9672,0.9671,0.9656,0.9656,0.9656,0,0.993,0.9924,0.9894,0.9885,0.9873,0.9859,0.9848,0.9824,0.9813,0.9788,0.9782,0.9763,0.9746,0.9719,0.9697,0.9677,0.967,0.9673,0.9667,0.9672,0.9668,0.9669,0.9667,0.9675,0.9675,0.9675,0.9676,0,0.9947,0.9936,0.9921,0.9902,0.9889,0.9873,0.9855,0.9849,0.9821,0.981,0.9791,0.9778,0.9752,0.9733,0.971,0.9695,0.968,0.9678,0.9676,0.9682,0.969,0.9684,0.9672,0.9678,0.9678,0.9677,0.9677,0.9677,0.9962,0.9955,0.9933,0.9916,0.99,0.9884,0.9874,0.9856,0.984,0.9817,0.9804,0.9786,0.9763,0.9731,0.9716,0.9701,0.9695,0.9694,0.9693,0.9693,0.9694,0.9692,0.9697,0.9697,0.9696,0.9696,0.9696,0,0.9977,0.9961,0.9946,0.9922,0.9909,0.9896,0.9875,0.9864,0.9849,0.9829,0.9812,0.979,0.9771,0.9747,0.9725,0.9717,0.9709,0.9712,0.9712,0.9708,0.9701,0.9704,0.9718,0.9718,0.9718,0.9718,0.9718,0.9718,0.9983,0.9969,0.9956,0.9934,0.9918,0.99,0.9889,0.9873,0.9857,0.9833,0.9817,0.9801,0.9779,0.9756,0.9736,0.973,0.9722,0.9727,0.9718,0.9711,0.9709,0.9707,0.971,0.9726,0.9726,0.9727,0.9727,0.9727]},{"header":{"parameterUnit":"m.s-1","parameterCategory":1,"la1":30.2991,"la2":30.254,"lo1":-89.0895,"lo2":-89.0444,"dy":0.0017,"dx":0.0017,"nx":28,"ny":28,"refTime":"2025-05-01T03:00:00:Z","depth":0,"parameterNumber":3,"parameterNumberName":"V-component_of_WINDS"},"data":[0,0,0,0,0,0,0,0,0,0,0,0,0,0,0,0,0,0,0,0,0,0,0,0,0,0,0,0,0,0,0,0,0,0,0,0,0,0,0,0,0,0,0,0,0,0,0,0,0,0,0,0,0,0,0,0,0,0,4.9557,4.9559,0,4.9743,4.9745,4.9747,4.9735,4.9733,4.973,4.9727,4.991,4.9917,4.9925,0,0,0,0,0,0,0,0,0,0,0,0,0,4.9184,4.9191,4.9557,4.9559,4.9562,4.9742,4.9745,4.9747,4.9736,4.9733,4.9729,4.9726,4.9908,4.9916,4.9925,0,0,0,0,0,0,0,0,0,0,0,0,0,4.9355,4.9193,4.9557,4.9578,4.9582,4.9742,4.9745,4.9748,4.9736,4.9732,4.9728,4.9725,4.9905,4.9916,4.9926,5.0075,0,0,4.996,4.9965,0,0,0,0,0,0,0,0,4.9346,4.9369,4.9572,4.9577,4.9581,4.9712,4.968,4.9858,4.9738,4.9677,4.9727,4.9723,4.9847,4.9862,4.9906,5.0084,5.0092,4.9961,4.9968,4.9973,4.9976,0,0,0,0,0,0,0,4.9334,4.9361,4.963,4.9575,4.9581,4.9575,4.9595,4.9714,4.9782,4.9682,4.9682,4.9705,4.9848,4.9895,4.991,5.0094,4.9961,4.9971,4.9978,4.9982,5.0401,5.0405,0,0,0,0,0,0,4.9318,4.9351,4.9624,4.9636,4.9451,4.9585,4.9608,4.9674,4.9781,4.9794,4.9708,4.9703,4.9878,4.9897,4.9916,5.0096,4.9973,4.9983,4.9989,5.0396,5.0402,5.0406,0,0,0,0,0,0,4.931,4.9343,4.9617,4.9494,4.9528,4.9596,4.9671,4.968,4.9727,4.98,4.9812,4.9744,4.9876,4.9901,5.0036,5.0102,4.9988,4.9998,5.0391,5.0398,5.0404,5.0457,0,0,0,0,0,0,4.93,4.934,4.94,4.9495,4.9535,4.9736,4.9675,4.9686,4.9747,4.9742,4.9837,4.9849,4.9875,5.0019,5.0047,5.0115,5.0007,5.0385,5.0394,5.0402,5.045,5.0465,5.0478,0,0,0,0,0,4.9287,4.9406,4.9403,4.9436,4.9611,4.974,4.9762,4.9792,4.9752,4.9811,4.9858,4.9846,5.0091,5.0033,5.0064,5.0137,5.0381,5.0391,5.0401,5.0444,5.0462,5.0478,0,0,0,0,0,0,4.9315,4.9419,4.9416,4.9571,4.9647,4.9738,4.9813,4.9811,4.9898,4.989,4.9921,4.9942,5.0077,5.012,5.0055,5.0285,5.023,5.0247,5.0252,5.027,5.0284,5.027,5.0016,0,0,0,0,0,4.9339,4.9438,4.9523,4.9651,4.9689,4.9745,4.9802,4.9818,4.9897,4.9928,4.9985,5.006,5.0153,5.0214,5.0305,5.0456,5.0475,5.0521,5.0535,5.0546,5.056,5.0641,5.0661,5.044,5.0439,5.0439,0,0,4.939,4.9459,4.952,4.9658,4.9719,4.9817,4.9772,4.9878,4.9951,4.9944,5.0075,5.0119,5.0204,5.0347,5.0413,5.0388,5.0626,5.0559,5.0568,5.0575,5.0653,5.0674,5.0693,5.0446,5.0445,5.0444,0,0,4.9533,4.9597,4.971,4.9772,4.9865,4.9901,4.9927,5.0019,5.0048,5.0181,5.0177,5.0262,5.0423,5.0484,5.0535,5.0699,5.069,5.0727,5.08,5.0879,5.0896,5.0912,5.0968,5.0988,5.0741,5.0741,5.0741,0,4.9584,4.9736,4.9767,4.9875,4.9935,4.9935,5.0047,5.0105,5.0222,5.0261,5.0232,5.0433,5.049,5.0646,5.0686,5.0729,5.0758,5.0717,5.0892,5.0908,5.0922,5.0976,5.0998,5.0745,5.0745,5.0744,5.0744,0,4.9792,4.9897,4.9976,5.0091,5.016,5.0269,5.0315,5.038,5.039,5.0428,5.056,5.0629,5.0733,5.0771,5.0781,5.0928,5.0909,5.0885,5.083,5.0947,5.0998,5.1019,5.075,5.0749,5.0748,5.0747,0,0,4.9959,5.009,5.0118,5.0169,5.0271,5.0351,5.0459,5.0562,5.0616,5.0696,5.0785,5.0921,5.0899,5.0958,5.0974,5.1043,5.1166,5.1011,5.1013,5.1035,5.1328,5.1345,5.1368,5.1161,5.1165,5.1168,5.132,0,5.0111,5.0306,5.0336,5.0506,5.0601,5.0602,5.0695,5.0766,5.0804,5.0887,5.0928,5.1023,5.0988,5.1023,5.1092,5.1136,5.1224,5.1126,5.1241,5.1244,5.1218,5.1395,5.1414,5.1554,5.1341,5.1344,5.1347,0,5.0315,5.0402,5.0582,5.0669,5.071,5.0794,5.089,5.0971,5.105,5.1072,5.1137,5.1145,5.1253,5.1195,5.1343,5.1275,5.1323,5.1352,5.1358,5.1369,5.1302,5.1409,5.16,5.1621,5.1379,5.1376,5.1374,0,5.0416,5.0578,5.0706,5.075,5.0856,5.0914,5.096,5.1036,5.1095,5.1177,5.1215,5.1309,5.1359,5.143,5.1461,5.1416,5.1606,5.1551,5.1625,5.1624,5.1664,5.1661,5.1864,5.1698,5.1698,5.1697,5.1697,0,5.0582,5.0691,5.0753,5.0831,5.0952,5.0985,5.1104,5.1147,5.1214,5.1299,5.1304,5.1383,5.142,5.1503,5.1528,5.1645,5.1668,5.1687,5.1692,5.1686,5.1684,5.1717,5.1708,5.1703,5.1702,5.1701,5.17,0,5.0715,5.0761,5.09,5.0989,5.1014,5.1099,5.1173,5.1248,5.1284,5.1391,5.1418,5.1475,5.1573,5.1612,5.1731,5.1748,5.1882,5.188,5.1856,5.1857,5.1929,5.1921,5.216,5.2191,5.2006,5.2008,5.2009,0,5.0817,5.0902,5.1,5.1058,5.1107,5.1201,5.1261,5.1296,5.1358,5.1454,5.1516,5.1614,5.1695,5.1851,5.1901,5.1991,5.199,5.2068,5.2004,5.1994,5.1989,5.1983,5.199,5.2079,5.2081,5.2083,5.2084,0,5.0994,5.1012,5.1101,5.1198,5.1271,5.1348,5.1423,5.1469,5.1514,5.1584,5.1685,5.1748,5.187,5.1967,5.206,5.2103,5.21,5.2104,5.2125,5.2119,5.2101,5.211,5.1887,5.2098,5.2096,5.2095,5.2095,5.2094,5.1113,5.1188,5.1268,5.1366,5.1427,5.1496,5.157,5.1616,5.1703,5.1807,5.1821,5.1929,5.2002,5.2128,5.2175,5.2258,5.2237,5.2269,5.2277,5.2284,5.2288,5.2089,5.2275,5.2275,5.2274,5.2274,5.2274,0,5.1288,5.134,5.143,5.1536,5.1612,5.1605,5.1687,5.175,5.1846,5.1917,5.1996,5.2111,5.2204,5.2261,5.2354,5.2409,5.241,5.2432,5.2427,5.2437,5.2302,5.2273,5.243,5.243,5.243,5.243,5.243,5.243,5.1388,5.1513,5.154,5.1693,5.1744,5.1852,5.1899,5.1961,5.2018,5.2147,5.2225,5.2263,5.2327,5.2424,5.2508,5.2522,5.2554,5.2578,5.259,5.2463,5.2447,5.2431,5.2404,5.2586,5.2586,5.2718,5.2719,5.272]}]]